[[{"header":{"parameterUnit":"m.s-1","parameterCategory":1,"la1":30.2991,"la2":30.254,"lo1":-89.0895,"lo2":-89.0444,"dy":0.0017,"dx":0.0017,"nx":28,"ny":28,"refTime":"2025-12-12T09:00:00:Z","depth":0,"parameterNumber":2,"parameterNumberName":"U-component_of_WINDS"},"data":[0,0,0,0,0,0,0,0,0,0,0,0,0,0,0,0,0,0,0,0,0,0,0,0,0,0,0,0,0,0,0,0,0,0,0,0,0,0,0,0,0,0,0,0,0,0,0,0,0,0,0,0,0,0,0,0,0,0,-2.6158,-2.6158,0,-2.6178,-2.6178,-2.6179,-2.6091,-2.6089,-2.6086,-2.6084,-2.6104,-2.6107,-2.611,0,0,0,0,0,0,0,0,0,0,0,0,0,-2.6044,-2.6046,-2.6158,-2.6158,-2.6159,-2.6178,-2.6178,-2.6179,-2.6092,-2.6088,-2.6085,-2.6082,-2.6103,-2.6107,-2.611,0,0,0,0,0,0,0,0,0,0,0,0,0,-2.6082,-2.6047,-2.6158,-2.6117,-2.6114,-2.6178,-2.6178,-2.6179,-2.6092,-2.6088,-2.6085,-2.6081,-2.6102,-2.6106,-2.6111,-2.6215,0,0,-2.6124,-2.6126,0,0,0,0,0,0,0,0,-2.608,-2.6086,-2.6123,-2.612,-2.6117,-2.6128,-2.6146,-2.6191,-2.6093,-2.6101,-2.6083,-2.6079,-2.6115,-2.6118,-2.6131,-2.6216,-2.6217,-2.6125,-2.6127,-2.6129,-2.6131,0,0,0,0,0,0,0,-2.6077,-2.6085,-2.6166,-2.6124,-2.612,-2.6098,-2.6099,-2.6154,-2.6129,-2.61,-2.6093,-2.6097,-2.6113,-2.6127,-2.6131,-2.6217,-2.6125,-2.6128,-2.6131,-2.6133,-2.6388,-2.6392,0,0,0,0,0,0,-2.608,-2.6083,-2.6165,-2.6167,-2.6088,-2.6103,-2.6105,-2.6128,-2.6128,-2.6125,-2.61,-2.6093,-2.6121,-2.6125,-2.6131,-2.6251,-2.6129,-2.6133,-2.6136,-2.6384,-2.6389,-2.6393,0,0,0,0,0,0,-2.6078,-2.6088,-2.6164,-2.6123,-2.6131,-2.6109,-2.6137,-2.6131,-2.6144,-2.6129,-2.6124,-2.6119,-2.6118,-2.6125,-2.6194,-2.6251,-2.6135,-2.6139,-2.6379,-2.6385,-2.6391,-2.6494,0,0,0,0,0,0,-2.6075,-2.6088,-2.6127,-2.6125,-2.6134,-2.6228,-2.614,-2.6134,-2.6152,-2.6143,-2.6145,-2.6142,-2.6116,-2.6188,-2.6199,-2.6255,-2.6143,-2.6374,-2.6382,-2.6389,-2.6486,-2.6503,-2.6518,0,0,0,0,0,-2.6071,-2.6156,-2.613,-2.614,-2.6182,-2.6231,-2.6237,-2.6205,-2.6157,-2.6196,-2.6186,-2.6142,-2.6244,-2.6196,-2.6207,-2.6266,-2.637,-2.6379,-2.6388,-2.6478,-2.65,-2.6518,0,0,0,0,0,0,-2.6165,-2.6155,-2.6125,-2.6212,-2.6223,-2.6217,-2.6265,-2.6229,-2.6254,-2.6244,-2.6204,-2.6205,-2.6281,-2.6281,-2.6228,-2.6366,-2.6298,-2.631,-2.6363,-2.6383,-2.6399,-2.6397,-2.6146,0,0,0,0,0,-2.6196,-2.6237,-2.6225,-2.6303,-2.631,-2.6287,-2.6307,-2.6282,-2.6292,-2.6296,-2.6291,-2.6303,-2.6337,-2.6361,-2.6392,-2.6486,-2.6484,-2.6532,-2.6548,-2.6561,-2.6571,-2.662,-2.664,-2.6424,-2.6424,-2.6423,0,0,-2.626,-2.6259,-2.6287,-2.6322,-2.6327,-2.637,-2.6291,-2.634,-2.6371,-2.6303,-2.6368,-2.6366,-2.6376,-2.6458,-2.6494,-2.646,-2.6631,-2.6573,-2.6584,-2.6587,-2.6632,-2.6652,-2.667,-2.643,-2.6429,-2.6428,0,0,-2.6398,-2.6402,-2.6466,-2.6474,-2.6484,-2.6468,-2.6484,-2.6483,-2.6478,-2.6543,-2.6493,-2.6529,-2.659,-2.6599,-2.6611,-2.6754,-2.6713,-2.6765,-2.6849,-2.6897,-2.6914,-2.6929,-2.6978,-2.6996,-2.6776,-2.6776,-2.6776,0,-2.6476,-2.6538,-2.6504,-2.6556,-2.6572,-2.6513,-2.6577,-2.6587,-2.6606,-2.6619,-2.658,-2.6655,-2.6658,-2.674,-2.6775,-2.6788,-2.6804,-2.6763,-2.6915,-2.6929,-2.6942,-2.6988,-2.7007,-2.6782,-2.6781,-2.6781,-2.678,0,-2.6632,-2.6677,-2.6727,-2.6747,-2.677,-2.6828,-2.6802,-2.6829,-2.6802,-2.6791,-2.6857,-2.6859,-2.6888,-2.6907,-2.6881,-2.6986,-2.6964,-2.6921,-2.6852,-2.697,-2.7012,-2.703,-2.6791,-2.6789,-2.6787,-2.6785,0,0,-2.6828,-2.6829,-2.6848,-2.6856,-2.6863,-2.6896,-2.6952,-2.6981,-2.7004,-2.702,-2.7065,-2.7118,-2.7078,-2.7092,-2.7068,-2.711,-2.722,-2.7061,-2.7061,-2.7089,-2.7334,-2.7364,-2.7385,-2.7195,-2.7198,-2.7201,-2.7332,0,-2.6961,-2.7055,-2.7026,-2.7121,-2.716,-2.7106,-2.7154,-2.7164,-2.7155,-2.7187,-2.7177,-2.7215,-2.716,-2.7168,-2.7208,-2.7199,-2.7269,-2.7189,-2.7234,-2.7236,-2.723,-2.7408,-2.744,-2.7564,-2.7349,-2.7352,-2.7354,0,-2.7128,-2.715,-2.7249,-2.7249,-2.7265,-2.7309,-2.7332,-2.7365,-2.7374,-2.7365,-2.7382,-2.7348,-2.7402,-2.7335,-2.7408,-2.7355,-2.7372,-2.7371,-2.7375,-2.7375,-2.73,-2.7411,-2.7603,-2.762,-2.738,-2.7378,-2.7376,0,-2.7258,-2.7313,-2.7379,-2.7388,-2.739,-2.7422,-2.7424,-2.743,-2.745,-2.7471,-2.7483,-2.7511,-2.7526,-2.7548,-2.7523,-2.7477,-2.7599,-2.7531,-2.7591,-2.7592,-2.7617,-2.7615,-2.7812,-2.7634,-2.7633,-2.7633,-2.7633,0,-2.7408,-2.7469,-2.7437,-2.7477,-2.7544,-2.7512,-2.758,-2.7576,-2.7582,-2.762,-2.7576,-2.7613,-2.7579,-2.7613,-2.7594,-2.7656,-2.7664,-2.7657,-2.7651,-2.7659,-2.766,-2.7668,-2.7657,-2.7638,-2.7637,-2.7636,-2.7635,0,-2.7562,-2.7543,-2.7611,-2.7608,-2.7609,-2.7658,-2.7656,-2.7692,-2.7681,-2.773,-2.774,-2.7722,-2.7759,-2.7737,-2.7776,-2.7763,-2.7843,-2.7827,-2.784,-2.7834,-2.7895,-2.7889,-2.8101,-2.8127,-2.7935,-2.7937,-2.7938,0,-2.7658,-2.7704,-2.7706,-2.7728,-2.7734,-2.7771,-2.779,-2.776,-2.7782,-2.7797,-2.7832,-2.7866,-2.7891,-2.7953,-2.7943,-2.7973,-2.7954,-2.8027,-2.7958,-2.7965,-2.7952,-2.7948,-2.7952,-2.804,-2.8042,-2.8044,-2.8046,0,-2.7828,-2.7817,-2.7846,-2.7873,-2.7897,-2.7917,-2.7933,-2.7954,-2.7924,-2.7951,-2.7989,-2.8008,-2.8048,-2.8081,-2.8106,-2.8108,-2.8072,-2.8068,-2.8083,-2.809,-2.8095,-2.8091,-2.7874,-2.8062,-2.8061,-2.8059,-2.8058,-2.8058,-2.7954,-2.7992,-2.7999,-2.8034,-2.8043,-2.8059,-2.8093,-2.8086,-2.8117,-2.8146,-2.8127,-2.8172,-2.818,-2.821,-2.8217,-2.8251,-2.8221,-2.8244,-2.8249,-2.8254,-2.8261,-2.8093,-2.8255,-2.8255,-2.8254,-2.8254,-2.8254,0,-2.812,-2.8122,-2.8154,-2.8178,-2.8205,-2.817,-2.8186,-2.821,-2.825,-2.8261,-2.8287,-2.833,-2.8363,-2.8356,-2.8385,-2.8414,-2.8397,-2.8422,-2.8418,-2.8418,-2.8287,-2.827,-2.8434,-2.8434,-2.8434,-2.8434,-2.8434,-2.8434,-2.8209,-2.8271,-2.826,-2.8326,-2.8328,-2.8371,-2.8383,-2.8397,-2.8406,-2.8456,-2.8483,-2.8478,-2.8482,-2.8512,-2.854,-2.8537,-2.8548,-2.8579,-2.8569,-2.8446,-2.8428,-2.8411,-2.8394,-2.8582,-2.8582,-2.8697,-2.8699,-2.8699]},{"header":{"parameterUnit":"m.s-1","parameterCategory":1,"la1":30.2991,"la2":30.254,"lo1":-89.0895,"lo2":-89.0444,"dy":0.0017,"dx":0.0017,"nx":28,"ny":28,"refTime":"2025-12-12T09:00:00:Z","depth":0,"parameterNumber":3,"parameterNumberName":"V-component_of_WINDS"},"data":[0,0,0,0,0,0,0,0,0,0,0,0,0,0,0,0,0,0,0,0,0,0,0,0,0,0,0,0,0,0,0,0,0,0,0,0,0,0,0,0,0,0,0,0,0,0,0,0,0,0,0,0,0,0,0,0,0,0,-0.7915,-0.7914,0,-0.7858,-0.7857,-0.7857,-0.7818,-0.7818,-0.7818,-0.7818,-0.7759,-0.7758,-0.7757,0,0,0,0,0,0,0,0,0,0,0,0,0,-0.7988,-0.7987,-0.7915,-0.7914,-0.7914,-0.7858,-0.7857,-0.7857,-0.7819,-0.7818,-0.7818,-0.7818,-0.776,-0.7758,-0.7756,0,0,0,0,0,0,0,0,0,0,0,0,0,-0.7946,-0.7987,-0.7915,-0.7888,-0.7885,-0.7858,-0.7857,-0.7856,-0.7819,-0.7818,-0.7818,-0.7817,-0.776,-0.7758,-0.7756,-0.7752,0,0,-0.775,-0.7749,0,0,0,0,0,0,0,0,-0.7949,-0.7944,-0.7893,-0.789,-0.7886,-0.7845,-0.7862,-0.7821,-0.7819,-0.7844,-0.7818,-0.7817,-0.7788,-0.7784,-0.7774,-0.7749,-0.7747,-0.775,-0.7749,-0.7748,-0.7747,0,0,0,0,0,0,0,-0.7952,-0.7946,-0.7892,-0.7892,-0.7888,-0.7878,-0.7871,-0.7854,-0.7819,-0.7842,-0.7839,-0.7832,-0.7786,-0.7776,-0.7772,-0.7746,-0.775,-0.7748,-0.7747,-0.7746,-0.7713,-0.7713,0,0,0,0,0,0,-0.7959,-0.7949,-0.7894,-0.7891,-0.7917,-0.7877,-0.787,-0.7859,-0.7819,-0.7812,-0.7833,-0.7831,-0.7779,-0.7775,-0.777,-0.7761,-0.7748,-0.7746,-0.7745,-0.7713,-0.7713,-0.7713,0,0,0,0,0,0,-0.7961,-0.7955,-0.7897,-0.7919,-0.7911,-0.7876,-0.7864,-0.7858,-0.7847,-0.7812,-0.7806,-0.7829,-0.7779,-0.7773,-0.7756,-0.7759,-0.7745,-0.7744,-0.7712,-0.7713,-0.7713,-0.7745,0,0,0,0,0,0,-0.7963,-0.7955,-0.7954,-0.7919,-0.791,-0.7885,-0.7864,-0.7857,-0.7844,-0.7841,-0.7807,-0.7801,-0.7778,-0.776,-0.7754,-0.7756,-0.7742,-0.7712,-0.7713,-0.7713,-0.7744,-0.7747,-0.7749,0,0,0,0,0,-0.7966,-0.7966,-0.7955,-0.7948,-0.7908,-0.7885,-0.7879,-0.7853,-0.7845,-0.7843,-0.782,-0.7802,-0.7759,-0.7758,-0.7752,-0.7753,-0.7712,-0.7712,-0.7713,-0.7742,-0.7746,-0.7749,0,0,0,0,0,0,-0.8003,-0.7961,-0.7948,-0.7937,-0.7915,-0.7879,-0.7875,-0.7858,-0.7838,-0.7836,-0.7804,-0.7797,-0.7784,-0.7766,-0.7766,-0.7746,-0.7733,-0.7733,-0.7758,-0.7761,-0.7763,-0.7768,-0.774,0,0,0,0,0,-0.801,-0.7995,-0.7959,-0.7953,-0.7942,-0.7911,-0.79,-0.7882,-0.7857,-0.7848,-0.7824,-0.7801,-0.7782,-0.777,-0.7751,-0.7741,-0.7732,-0.7738,-0.7741,-0.7743,-0.7743,-0.7734,-0.7736,-0.7715,-0.7715,-0.7715,0,0,-0.8024,-0.7999,-0.7992,-0.796,-0.794,-0.7925,-0.7903,-0.7889,-0.7877,-0.7846,-0.7829,-0.781,-0.7782,-0.7768,-0.7761,-0.7753,-0.7747,-0.7744,-0.7746,-0.7745,-0.7735,-0.7737,-0.7739,-0.7716,-0.7716,-0.7716,0,0,-0.8042,-0.8022,-0.8014,-0.7994,-0.7965,-0.7944,-0.7942,-0.7908,-0.7894,-0.7876,-0.7852,-0.7837,-0.7806,-0.7786,-0.7772,-0.778,-0.7762,-0.7774,-0.7788,-0.778,-0.7782,-0.7783,-0.7785,-0.7786,-0.7774,-0.7774,-0.7774,0,-0.8063,-0.804,-0.8012,-0.7998,-0.7984,-0.7954,-0.7944,-0.7927,-0.7893,-0.7884,-0.7876,-0.7834,-0.7813,-0.7794,-0.7795,-0.7785,-0.7781,-0.7778,-0.7784,-0.7785,-0.7786,-0.7787,-0.7788,-0.7776,-0.7776,-0.7776,-0.7775,0,-0.8067,-0.8051,-0.8047,-0.8015,-0.8,-0.7989,-0.7958,-0.7946,-0.7928,-0.7907,-0.7888,-0.7862,-0.7836,-0.783,-0.7813,-0.7807,-0.7803,-0.779,-0.7777,-0.779,-0.779,-0.7791,-0.7778,-0.7778,-0.7777,-0.7777,0,0,-0.8108,-0.8058,-0.8058,-0.8042,-0.8006,-0.7993,-0.7979,-0.7954,-0.7944,-0.7921,-0.7908,-0.7881,-0.7868,-0.7852,-0.7832,-0.7825,-0.7831,-0.7812,-0.7811,-0.7816,-0.7821,-0.7831,-0.7832,-0.7819,-0.7819,-0.7819,-0.7823,0,-0.812,-0.8095,-0.8068,-0.8051,-0.8035,-0.8006,-0.7993,-0.797,-0.7949,-0.7932,-0.7909,-0.789,-0.7875,-0.7865,-0.7856,-0.7832,-0.7831,-0.7831,-0.7805,-0.7805,-0.7814,-0.7833,-0.7843,-0.7849,-0.7823,-0.7823,-0.7823,0,-0.8131,-0.8109,-0.8091,-0.8055,-0.8048,-0.8037,-0.8011,-0.7995,-0.7967,-0.7952,-0.7933,-0.7911,-0.7894,-0.7882,-0.7857,-0.7858,-0.7845,-0.7831,-0.7831,-0.7827,-0.7815,-0.7829,-0.785,-0.7851,-0.7824,-0.7824,-0.7824,0,-0.8162,-0.8128,-0.8112,-0.8099,-0.8058,-0.8051,-0.8033,-0.8004,-0.799,-0.7966,-0.7956,-0.7931,-0.7917,-0.7897,-0.7868,-0.7863,-0.7846,-0.7832,-0.7832,-0.7833,-0.7831,-0.7831,-0.785,-0.7823,-0.7823,-0.7823,-0.7823,0,-0.8179,-0.8169,-0.8125,-0.8116,-0.8103,-0.8071,-0.8059,-0.8038,-0.8013,-0.7997,-0.797,-0.7956,-0.7919,-0.7901,-0.7878,-0.786,-0.7854,-0.7841,-0.7835,-0.7844,-0.7845,-0.7835,-0.7834,-0.7823,-0.7823,-0.7823,-0.7823,0,-0.8212,-0.8182,-0.8163,-0.8124,-0.8114,-0.8106,-0.8072,-0.8061,-0.8038,-0.8019,-0.8013,-0.7977,-0.7954,-0.7923,-0.789,-0.7875,-0.7859,-0.785,-0.7869,-0.7865,-0.7867,-0.7867,-0.788,-0.7879,-0.7854,-0.7854,-0.7854,0,-0.8224,-0.8216,-0.8175,-0.8163,-0.8146,-0.8127,-0.8112,-0.808,-0.8065,-0.803,-0.8023,-0.7997,-0.7975,-0.7939,-0.7909,-0.7883,-0.7873,-0.7879,-0.7869,-0.7877,-0.7872,-0.7873,-0.7871,-0.7882,-0.7882,-0.7883,-0.7883,0,-0.8249,-0.8234,-0.8214,-0.8187,-0.817,-0.8148,-0.8124,-0.8116,-0.8078,-0.8062,-0.8038,-0.802,-0.7986,-0.796,-0.793,-0.791,-0.789,-0.7886,-0.7885,-0.7893,-0.7904,-0.7897,-0.7875,-0.7886,-0.7886,-0.7886,-0.7886,-0.7885,-0.8271,-0.8262,-0.8232,-0.8209,-0.8188,-0.8166,-0.8153,-0.8128,-0.8107,-0.8076,-0.8058,-0.8034,-0.8003,-0.796,-0.7941,-0.7921,-0.7913,-0.7912,-0.7911,-0.7911,-0.7913,-0.7907,-0.7916,-0.7915,-0.7915,-0.7915,-0.7915,0,-0.8294,-0.8273,-0.8252,-0.822,-0.8202,-0.8184,-0.8156,-0.8142,-0.8121,-0.8094,-0.8072,-0.8043,-0.8017,-0.7985,-0.7957,-0.7947,-0.7936,-0.794,-0.7941,-0.7936,-0.7922,-0.7926,-0.7949,-0.7949,-0.7949,-0.7949,-0.7949,-0.7949,-0.8304,-0.8286,-0.8268,-0.8238,-0.8217,-0.8193,-0.8178,-0.8157,-0.8136,-0.8104,-0.8083,-0.8062,-0.8032,-0.8001,-0.7976,-0.7967,-0.7958,-0.7964,-0.7953,-0.794,-0.7937,-0.7935,-0.7938,-0.7963,-0.7963,-0.7968,-0.7968,-0.7968]}]]